www.pogodaiklimat.ru

Погода и климат >> Архив погоды >> Украина >> Ильичевск


ПОГОДА в Ильичевске

  • Прогноз погоды в Ильичевске
  • Монитор погоды в Ильичевске

АРХИВ ПОГОДЫ в Ильичевске

Время (UTC), дата Ветер
(напр.,м/с)
 
Видим.   Явления Облачность Т
(С)
Тd
(С)
f
(%)
Тe
(С)
Тes
(С)
Комфортность P
(гПа)
Po
(гПа)
Тmin
(С)
Tmax
(С)
R
(мм)
R24
(мм)
S
(см)
06 15.08 СЗ 4 18 км 8/0
[Ac und Ci]
+21.1 +14.5 66 +24 +27 комфорт 1008.3 1006.1 +20.1
09 15.08 С 3 40 км 8/8 600 м
[Sc Ac trans]
+27.1 +12.7 41 +29 +31 жарко 1008.6 1006.4
12 15.08 З 2 20 км 10/6 870 м
[Cu hum Ac und]
+26.4 +17.7 59 +31 +32 душно 1008.7 1006.5
15 15.08 СЗ 6 35 км 8/0
[Ci]
+27.8 +16.4 50 +31 +32 душно 1008.4 1006.2
18 15.08 СЗ 5 30 км 5/0
[Ac trans]
+23.4 +14.7 58 +27 +27 душно 1009.8 1007.6 +28.9
21 15.08 СЗ 6 20 км 8/0
[Ac trans]
+19.6 +14.0 70 +21 +21 комфорт 1011.2 1009.0
00 16.08 СЗ 5 18 км 5/0
[Ci]
+17.6 +13.3 76 +17 +17 1011.6 1009.3
03 16.08 СЗ 3 16 км 8/0
[Ac trans Ci sp]
+16.6 +12.8 78 +16 +16 1011.7 1009.4
06 16.08 С 4 30 км 8/0
[Cs]
+18.8 +13.4 71 +20 +23 1012.1 1009.9 +16.5
12 16.08 С 4 50 км 8/3 600 м
[Sc Ac trans Cs]
+23.2 +13.7 55 +27 +30 душно 1011.6 1009.4
18 16.08 С 4 28 км ясно +22.6 +12.0 51 +25 +25 комфорт 1012.9 1010.7 +25.6
00 17.08 СЗ 2 10 км ясно +18.0 +12.6 71 +19 +19 1013.8 1011.5
06 17.08 С 3 45 км ясно +18.8 +10.9 60 +20 +24 1014.6 1012.3 +17.5
12 17.08 СЗ 6 45 км 8/8 1000 м
[Cu hum]
+25.4 +6.6 30 +25 +26 комфорт 1012.7 1010.5
18 17.08 С 3 30 км 9/0
[Ac As]
+23.2 +8.9 40 +25 +25 комфорт 1013.2 1011.0 +25.4
00 18.08 СЗ 3 20 км ясно +16.9 +8.8 59 +17 +17 1014.7 1012.4
03 18.08 СЗ 2 26 км ясно +14.8 +8.3 65 +15 +15 1014.5 1012.2
06 18.08 СЗ 3 50 км ясно +19.4 +10.9 58 +21 +25 комфорт 1015.4 1013.1 +14.8
09 18.08 С 3 50 км 3/3 600 м
[Cu med, cong]
+23.6 +10.6 44 +25 +33 комфорт 1015.5 1013.3
12 18.08 С 2 50 км 3/3 600 м
[Cu hum]
+26.0 +8.5 33 +26 +35 жарко 1015.1 1012.9
15 18.08 Ю 3 50 км 1/1 600 м
[Cu hum]
+23.6 +12.9 51 +26 +27 жарко 1015.4 1013.2
18 18.08 З 3 45 км ясно +21.7 +13.9 61 +25 +25 комфорт 1016.4 1014.2 +27.4
00 19.08 СЗ 3 26 км ясно +17.5 +14.2 81 +18 +18 1017.4 1015.1
03 19.08 СЗ 3 30 км ясно +16.7 +12.0 74 +16 +16 1018.3 1016.0
06 19.08 С 1 20 км ясно +22.0 +14.1 61 +25 +31 комфорт 1019.3 1017.1 +16.6
09 19.08 В 2 40 км ясно +24.4 +15.1 56 +27 +41 жарко 1019.7 1017.5
12 19.08 ЮВ 3 35 км ясно +25.1 +17.3 62 +29 +39 душно 1019.2 1017.0
15 19.08 Ю 3 50 км ясно +25.5 +11.3 41 +27 +28 жарко 1019.3 1017.1
18 19.08 З 1 50 км ясно +23.2 +12.2 50 +26 +26 жарко 1019.9 1017.7 +26.1
00 20.08 СЗ 3 27 км ясно +19.4 +12.2 63 +21 +21 комфорт 1020.1 1017.8
06 20.08 В 2 30 км ясно +23.3 +14.0 56 +27 +32 душно 1021.4 1019.2 +18.3
12 20.08 ЮВ 1 40 км ясно +26.2 +16.2 54 +30 +43 душно 1021.2 1019.0
18 20.08 СЗ 1 25 км ясно +24.2 +12.2 47 +26 +26 жарко 1021.1 1018.9 +28.1
00 21.08 С 2 40 км ясно +24.2 +13.4 51 +26 +26 жарко 1020.5 1018.3
06 21.08 СЗ 2 30 км ясно +24.5 +14.0 52 +27 +32 жарко 1020.4 1018.2 +20.8
12 21.08 В 1 35 км 4/0
[Ci]
+31.3 +16.1 40 +34 +47 душно 1018.2 1016.0
18 21.08 С 1 45 км 1/0
[Ci fib]
+29.2 +12.2 35 +30 +30 жарко 1017.6 1015.4 +31.9

 

Местоположение метеостанции Ильичевск (Одесская область, Украина): широта 46.40 долгота 30.70 высота над уровнем моря 52 м.

В архиве по умолчанию представлена погода в Ильичевске за последнюю неделю. Архивные данные за месяц целиком и за предыдущие месяцы, начиная с января 2011 года, Вы можете получить, выбрав интересующий диапазон дат из раскрывающегося списка и нажав кнопку "Ввод!".


*Определитесь, кто Вы:
робот инопланетянин человек

Внимание! Время в таблицах - всемирное. Для получения местного времени необходимо прибавить поправку, которая равна 2 ч.

Смотрите также архив погоды в соседних городах и на ближайших метеорологических станциях:

Погода в Одессе (Одесская область, Украина) (6 км)
Погода в Белгород-Днестровском (Одесская область, Украина) (35 км)
Погода в Раздельной (Одесская область, Украина) (69 км)
Погода в Сербке (Одесская область, Украина) (69 км)
Погода в Заставе (Одесская область, Украина) (70 км)
Погода в Очакове (Николаевская область, Украина) (70 км)
Погода в Сарате (Одесская область, Украина) (90 км)
Погода в Штефан Водэ (Молдова) (94 км)
Погода в Тирасполе (Молдова) (101 км)
Погода в Вилково (Одесская область, Украина) (108 км)

Пояснения к столбцам:

Ветер - указаны скорость ветра в м/с - средняя за 10 мин, порывы в срок и между сроками (в фигурных скобках) и направление, откуда дует ветер: С - северный, СВ - северо-восточный, В - восточный, ЮВ - юго-восточный, Ю - южный, ЮЗ - юго-западный, З - западный, СЗ - северо-западный.
Видимость - горизонтальная дальность видимости в метрах или километрах. При видимости от 1 до 10 км при отсутствии осадков обычно наблюдается дымка, при ухудшении видимости до 1 км и менее - туман. В сухую погоду видимость может ухудшаться дымом, пылью или мглою.
Явления - указаны атмосферные явления, наблюдавшиеся в срок или в последний час перед сроком; фигурными скобками обозначены явления, наблюдавшиеся между сроками (за 1-3 часа до срока); квадратными скобками обозначены град или гололедные отложения с указанием их диаметра в мм.
Облачность - указаны через наклонную черту общая и нижняя облачность в баллах и высота нижней границы облаков в метрах; квадратными скобками обозначены формы облаков: Ci - перистые, Cs - перисто-слоистые, Cc - перисто-кучевые, Ac - высококучевые, As - высокослоистые, Sc - слоисто-кучевые, Ns - слоисто-дождевые, Cu - кучевые, Cb - кучево-дождевые. Подробнее классификацию облаков см. в Атласе облаков (PDF).
T - Температура воздуха - температура, измеренная на высоте 2 м над землей.
Td - Температура точки росы - температура, при понижении до которой содержащийся в воздухе водяной пар достигнет насыщения.
f - Относительная влажность воздуха - влажноcть воздуха, измеренная на высоте 2 м над землей.
Te - Эффективная температура - температура, которую ощущает одетый по сезону человек в тени. Характеристика душности погоды. При расчете учитывается влияние влажности воздуха и скорости ветра на теплоощущения человека.
Tes - Эффективная температура на солнце - температура, которую ощущает человек, с поправкой на солнечный нагрев. Характеристика знойности погоды. Зависит от высоты солнца над горизонтом, облачности и скорости ветра. Ночью, в пасмурную погоду, а также при ветре 12 м/с и более поправка равна нулю.
P - Атмосферное давление - приведенное к уровню моря атмосферное давление.
Po - Атмосферное давление - измеренное на уровне метеостанции атмосферное давление.
Tmin - Минимальная температура - минимум температуры воздуха на высоте 2 м над землей.
Tmax - Максимальная температура - максимум температуры воздуха на высоте 2 м над землей.
R - Количество осадков - Количество выпавших осадков за период времени, мм. При наведении курсора мыши на число - период времени, за который выпало указанное количество осадков.
R24 - Количество осадков - Количество выпавших осадков за 24 часа, мм.
S - Снежный покров - Высота снежного покрова, см. При наведении курсора мыши на число - состояние снежного покрова и степень покрытия местности в баллах.